Weather History for Bentonville, AR

Change the Weather History Date:

Saturday, December 1, 2012

  Actual Average Record
Temperature  
Mean Temperature 60 °F -  
Max Temperature 69 °F 52 °F 70 °F (1982)
Min Temperature 51 °F 29 °F 14 °F (1979)
Degree Days  
Heating Degree Days 5    
Growing Degree Days 10 (Base 50)    
Moisture  
Dew Point 55 °F    
Average Humidity 74    
Maximum Humidity 88    
Minimum Humidity 60    
Precipitation  
Precipitation 0.00 in - - ()
Sea Level Pressure  
Sea Level Pressure 29.97 in    
Wind  
Wind Speed 10 mph (South)    
Max Wind Speed 23 mph    
Max Gust Speed 32 mph    
Visibility 9 miles    
Events      
Averages and records for this station are not official NWS values.
T = Trace of Precipitation, MM = Missing Value Source: NWS Daily Summary

Daily Weather History Graph

Daily Weather History Graph

Search for Another Location

Airport:

Trip Planner

Search our weather history database for the weather conditions in past years. The results will help you decide how hot, cold, wet, or windy it might be!

Date:

Astronomy

Dec. 01, 2012 Rise Set
Actual Time 7:10 AM CST 5:01 PM CST
Civil Twilight 6:42 AM CST 5:30 PM CST
Nautical Twilight 6:10 AM CST 6:02 PM CST
Astronomical Twilight 5:39 AM CST 6:33 PM CST
Moon 7:51 PM CST (12/1) 9:24 AM CST (12/1)
Length of Visible Light 10h 48m
Length of Day
9h 51m
Waning Gibbous, 91% of the Moon is Illuminated
Dec 1
Waning Gibbous
Dec 6
Last Quarter
Dec 13
New
Dec 19
First Quarter
Dec 28
Full

Hourly Weather History & Observations

Time (CST) Temp. Dew Point Humidity Pressure Visibility Wind Dir Wind Speed Gust Speed Precip Events Conditions
12:15 AM 53.6 °F 50.0 °F 88% 30.07 in 5.0 mi South 4.6 mph - N/A   Mostly Cloudy
12:35 AM 51.8 °F 48.2 °F 88% 30.06 in 4.0 mi SSE 5.8 mph - N/A   Scattered Clouds
1:15 AM 51.8 °F 48.2 °F 88% 30.05 in 4.0 mi SSE 5.8 mph - N/A   Partly Cloudy
1:35 AM 53.6 °F 50.0 °F 88% 30.05 in 5.0 mi SSE 5.8 mph - N/A   Clear
1:55 AM 53.6 °F 50.0 °F 88% 30.05 in 6.0 mi South 5.8 mph - N/A   Clear
2:15 AM 55.4 °F 51.8 °F 88% 30.04 in 7.0 mi South 6.9 mph - N/A   Clear
2:55 AM 55.4 °F 51.8 °F 88% 30.04 in 7.0 mi SSE 8.1 mph - N/A   Clear
3:35 AM 55.4 °F 51.8 °F 88% 30.03 in 8.0 mi South 6.9 mph - N/A   Clear
4:15 AM 57.2 °F 51.8 °F 82% 30.02 in 10.0 mi South 6.9 mph - N/A   Clear
4:55 AM 57.2 °F 53.6 °F 88% 30.02 in 10.0 mi South 9.2 mph - N/A   Partly Cloudy
5:15 AM 57.2 °F 53.6 °F 88% 30.01 in 10.0 mi South 9.2 mph - N/A   Mostly Cloudy
6:15 AM 59.0 °F 53.6 °F 82% 30.01 in 10.0 mi South 9.2 mph 16.1 mph N/A   Overcast
6:35 AM 60.8 °F 53.6 °F 77% 30.01 in 10.0 mi South 9.2 mph - N/A   Overcast
7:15 AM 60.8 °F 53.6 °F 77% 30.01 in 10.0 mi South 10.4 mph - N/A   Overcast
7:35 AM 60.8 °F 55.4 °F 82% 30.01 in 8.0 mi South 9.2 mph - N/A   Overcast
7:55 AM 60.8 °F 55.4 °F 82% 30.01 in 8.0 mi South 9.2 mph 16.1 mph N/A   Overcast
8:55 AM 62.6 °F 55.4 °F 77% 30.01 in 10.0 mi South 12.7 mph 24.2 mph N/A   Overcast
9:16 AM 62.6 °F 55.4 °F 77% 30.01 in 10.0 mi South 16.1 mph 20.7 mph N/A   Overcast
9:35 AM 64.4 °F 55.4 °F 73% 30.01 in 10.0 mi South 17.3 mph 23.0 mph N/A   Overcast
9:55 AM 64.4 °F 55.4 °F 73% 30.00 in 10.0 mi South 15.0 mph 27.6 mph N/A   Overcast
10:55 AM 66.2 °F 57.2 °F 73% 29.99 in 10.0 mi South 19.6 mph 26.5 mph N/A   Overcast
11:15 AM 66.2 °F 57.2 °F 73% 29.98 in 10.0 mi South 15.0 mph 24.2 mph N/A   Overcast
11:55 AM 66.2 °F 55.4 °F 68% 29.95 in 10.0 mi South 18.4 mph 24.2 mph N/A   Overcast
12:15 PM 66.2 °F 55.4 °F 68% 29.94 in 10.0 mi South 16.1 mph 31.1 mph N/A   Overcast
12:35 PM 68.0 °F 55.4 °F 64% 29.93 in 10.0 mi South 16.1 mph 24.2 mph N/A   Overcast
12:55 PM 68.0 °F 55.4 °F 64% 29.92 in 10.0 mi South 20.7 mph 27.6 mph N/A   Overcast
1:15 PM 69.8 °F 55.4 °F 60% 29.91 in 10.0 mi South 19.6 mph 27.6 mph N/A   Overcast
1:35 PM 69.8 °F 55.4 °F 60% 29.91 in 9.0 mi SSW 20.7 mph 29.9 mph N/A   Overcast
2:15 PM 69.8 °F 55.4 °F 60% 29.89 in 10.0 mi South 23.0 mph 31.1 mph N/A   Mostly Cloudy
2:35 PM 69.8 °F 55.4 °F 60% 29.90 in 10.0 mi SSW 18.4 mph 25.3 mph N/A   Overcast
3:15 PM 69.8 °F 55.4 °F 60% 29.90 in 10.0 mi South 17.3 mph 31.1 mph N/A   Mostly Cloudy
3:35 PM 69.8 °F 55.4 °F 60% 29.90 in 10.0 mi South 21.9 mph 29.9 mph N/A   Mostly Cloudy
3:55 PM 69.8 °F 55.4 °F 60% 29.89 in 10.0 mi South 13.8 mph 23.0 mph N/A   Mostly Cloudy
4:15 PM 69.8 °F 55.4 °F 60% 29.89 in 10.0 mi South 18.4 mph 32.2 mph N/A   Mostly Cloudy
4:35 PM 69.8 °F 55.4 °F 60% 29.89 in 10.0 mi South 17.3 mph 28.8 mph N/A   Scattered Clouds
4:55 PM 68.0 °F 55.4 °F 64% 29.89 in 10.0 mi South 16.1 mph 23.0 mph N/A   Clear
5:55 PM 66.2 °F 55.4 °F 68% 29.89 in 10.0 mi South 11.5 mph 18.4 mph N/A   Clear
6:15 PM 66.2 °F 55.4 °F 68% 29.90 in 10.0 mi South 11.5 mph 17.3 mph N/A   Clear
6:36 PM 64.4 °F 55.4 °F 73% 29.91 in 10.0 mi South 10.4 mph - N/A   Clear
7:15 PM 66.2 °F 55.4 °F 68% 29.93 in 10.0 mi South 12.7 mph 17.3 mph N/A   Partly Cloudy
7:35 PM 66.2 °F 55.4 °F 68% 29.94 in 10.0 mi South 10.4 mph 17.3 mph N/A   Clear
7:55 PM 66.2 °F 55.4 °F 68% 29.94 in 10.0 mi South 13.8 mph 18.4 mph N/A   Clear
8:35 PM - - N/A% 29.94 in 10.0 mi South 9.2 mph 16.1 mph N/A   Clear
9:15 PM 66.2 °F 57.2 °F 73% 29.96 in 10.0 mi South 11.5 mph 19.6 mph N/A   Clear
9:35 PM 66.2 °F 57.2 °F 73% 29.96 in 10.0 mi South 11.5 mph - N/A   Partly Cloudy
9:55 PM 64.4 °F 57.2 °F 77% 29.96 in 10.0 mi South 10.4 mph - N/A   Clear
10:16 PM 64.4 °F 57.2 °F 77% 29.96 in 10.0 mi South 11.5 mph 16.1 mph N/A   Clear
10:35 PM 64.4 °F 57.2 °F 77% 29.96 in 10.0 mi South 11.5 mph 16.1 mph N/A   Clear
11:35 PM 64.4 °F 57.2 °F 77% 29.97 in 10.0 mi South 10.4 mph - N/A   Clear
11:55 PM 64.4 °F 57.2 °F 77% 29.97 in 10.0 mi SSW 9.2 mph 16.1 mph N/A   Clear